Home   Weather   Winder   Past weeks

Flag for USA Past Weather in Winder, Georgia, USA — Yesterday and Last 2 Weeks

Now
57 °F

Cool.


Feels Like: 57 °F
Forecast: 57 / 84 °F
Wind: No wind

Location: Winder-Barrow Airport

Current Time: Apr 26, 2017 at 8:26:51 am

Latest Report: Apr 26, 2017 at 7:36 am


Visibility: 10 mi

Pressure: 29.84 "Hg

Humidity: 94%

Dew Point: 55 °F

Location of WinderLocation

Weather Data Notice: We have recorded very few readings for this month, some days may be missing.

Past Weather in Winder — Graph

°F

Winder Temperature Yesterday

Maximum temperature yesterday: 81 °F (at 4:36 pm)
Minimum temperature yesterday: 66 °F (at 10:55 pm)
Average temperature yesterday: 77 °F

High & Low Weather Summary for the Past Weeks

 TemperatureHumidityPressure
High84 °F (Apr 17, 3:36 pm)94% (Apr 13, 6:36 am)30.41 "Hg (Apr 13, 6:36 am)
Low54 °F (Apr 24, 8:55 am)34% (Apr 11, 3:16 pm)29.73 "Hg (Apr 25, 4:36 pm)
Average69 °F67%30.11 "Hg
* Reported Apr 11 10:36 am — Apr 26 7:36 am, Winder, Weather by CustomWeather, © 2017

Note: Actual official high and low records may vary slightly from our data, if they occured in-between our weather recording intervals... More about our weather records

Advertising

Winder Weather History for the Previous 24 Hours

Scroll right to see more
 ConditionsComfort  
Time TempWeatherWind HumidityBarometerVisibility
7:36 am
Wed, Apr 26
57 °FCool.No wind94%29.84 "Hg10 mi
6:55 am57 °FCool.No wind94%29.81 "HgN/A
6:36 am57 °FCool.No wind94%29.80 "HgN/A
5:16 am61 °FCool.5 mph83%29.80 "HgN/A
4:36 am61 °FCool.3 mph88%29.79 "HgN/A
4:16 am59 °FCool.6 mph94%29.79 "HgN/A
3:55 am57 °FCool.No wind94%29.79 "HgN/A
3:36 am57 °FCool.3 mph94%29.79 "HgN/A
2:36 am61 °FCool.No wind88%29.80 "HgN/A
2:16 am61 °FCool.5 mph88%29.80 "HgN/A
1:36 am61 °FCool.3 mph88%29.82 "HgN/A
1:15 am63 °FMild.No wind83%29.82 "HgN/A
12:35 am64 °FClear.No wind78%29.82 "HgN/A
10:55 pm
Tue, Apr 25
66 °FClear.5 mph73%29.80 "HgN/A
10:16 pm68 °FClear.6 mph69%29.80 "HgN/A
8:16 pm73 °FClear.5 mph57%29.76 "HgN/A
7:15 pm79 °FSunny.8 mph48%29.74 "HgN/A
6:56 pm79 °FSunny.10 mph48%29.74 "HgN/A
6:16 pm81 °FScattered clouds.9 mph45%29.73 "HgN/A
5:15 pm81 °FSunny.5 mph45%29.73 "HgN/A
4:55 pm81 °FScattered clouds.6 mph45%29.73 "HgN/A
4:36 pm81 °FSunny.9 mph45%29.73 "HgN/A
3:14 pm77 °FScattered clouds.7 mph51%29.76 "HgN/A
2:55 pm77 °FScattered clouds.6 mph51%29.76 "HgN/A
2:36 pm77 °FPartly sunny.7 mph54%29.77 "HgN/A
Weather by CustomWeather, © 2017

See weather overviewHow to use our weather pages